Location: Newark
(49.3000°N, 9.4667°E)
Time: 23:17:04
(UTC+00:00)

Tiros 1 - Pass Details

Date: 28 May 2019
Orbit: 631 x 664 km, 48.4° (Epoch: 15 June)

Event Time Altitude Azimuth Distance (km) Brightness Sun altitude
Rises 10:39:51 0° 264° (W) 2,926 10.5 61.1°
Reaches altitude 10° 10:42:10 10° 264° (W) 2,022 9.8 61.2°
Maximum altitude 10:46:49 81° 178° (S) 653 8.9 61.4°
Drops below altitude 10° 10:51:32 10° 91° (E) 2,043 10.0 61.6°
Sets 10:53:53 0° 90° (E) 2,959 10.6 61.7°
